CAT,Max TemperatureF,Mean TemperatureF,Min TemperatureF,Max Dew PointF,MeanDew PointF,Min DewpointF,Max Humidity, Mean Humidity, Min Humidity, Max Sea Level PressureIn, Mean Sea Level PressureIn, Min Sea Level PressureIn, Max VisibilityMiles, Mean VisibilityMiles, Min VisibilityMiles, Max Wind SpeedMPH, Mean Wind SpeedMPH, Max Gust SpeedMPH,PrecipitationIn, CloudCover, Events, WindDirDegrees
2013-8-1,70,58,47,42,41,41,53,37,24,30.27,30.27,30.27,19,19,19,8,7,,0.00,,,130
2013-8-2,73,59,45,45,44,43,82,48,24,30.39,30.32,30.24,19,19,19,10,9,,0.00,,,112
2013-8-3,75,60,47,45,44,43,76,50,24,30.36,30.30,30.21,19,19,19,13,9,,0.00,,,113
2013-8-4,77,64,52,45,43,42,59,42,20,30.27,30.23,30.15,19,19,19,13,10,,0.00,,,105
2013-8-5,76,64,51,39,36,33,54,32,12,30.21,30.17,30.09,19,19,19,15,8,,0.00,,,144
2013-8-6,76,58,44,43,40,36,47,31,14,30.18,30.18,30.18,19,19,19,7,6,,0.00,,,70
2013-8-7,81,62,44,37,35,32,27,18,10,29.95,29.95,29.95,19,19,19,7,5,,0.00,,,180
2013-8-8,83,64,46,46,42,39,66,34,13,30.06,30.00,29.95,19,19,19,8,5,,0.00,,,37
2013-8-9,86,86,82,48,43,37,30,20,9,29.98,29.98,29.98,4,4,4,9,5,,0.00,,,345
2013-8-10,86,61,55,43,40,38,23,18,13,,,,12,12,12,7,5,,0.00,,,-1
2013-8-11,87,70,54,42,40,38,26,19,12,30.04,30.04,30.04,12,12,12,9,7,,0.00,,,60
2013-8-12,87,72,56,43,41,39,43,25,10,30.09,30.05,30.01,12,12,12,7,7,,0.00,,,90
2013-8-13,87,69,51,46,42,36,62,28,15,30.06,30.00,29.95,5,5,5,7,5,,0.00,,,75
2013-8-14,90,70,51,37,35,33,47,22,7,30.01,29.97,29.92,12,12,12,5,4,,0.00,,,285
2013-8-15,91,72,52,36,33,30,44,21,6,30.06,30.00,29.95,12,9,6,7,3,,0.00,,,247
2013-8-16,88,72,55,32,26,18,21,14,6,30.06,30.04,30.01,16,14,12,10,7,,0.00,,,0
2013-8-17,89,70,52,60,40,30,91,31,7,30.01,30.00,29.98,12,12,12,5,4,,0.00,,,320
2013-8-18,89,69,49,36,34,32,47,21,7,30.09,30.03,29.98,6,5,5,6,4,,0.00,6,,79
2013-8-19,89,74,59,48,32,14,29,18,4,30.12,30.08,30.04,9,9,9,13,9,,0.00,,,122
2013-8-20,75,58,54,52,50,48,77,60,38,30.24,30.21,30.18,6,6,5,15,10,,0.00,0,,107
2013-8-21,84,66,47,47,45,41,67,37,15,30.18,30.13,30.04,16,16,16,9,6,,0.00,,,88
2013-8-22,80,55,46,44,41,39,76,46,23,30.12,30.11,30.09,19,19,19,9,4,,0.00,,,70
2013-8-23,87,58,46,37,36,35,29,18,8,30.15,30.15,30.15,19,12,6,9,6,,0.00,,,50
2013-8-24,87,72,58,43,39,36,26,19,10,30.18,30.12,30.06,6,5,5,13,11,,0.00,0,,85
2013-8-25,84,72,59,48,36,29,67,27,7,30.21,30.15,30.09,16,16,16,16,10,29,0.00,,,85
2013-8-26,82,65,48,43,41,37,62,31,14,30.24,30.18,30.12,12,12,12,15,9,,0.00,,,95
2013-8-27,81,66,50,46,41,37,62,31,12,30.24,30.17,30.09,12,12,12,16,7,,0.00,,,106
2013-8-28,83,65,47,46,39,32,62,28,8,30.18,30.12,30.01,12,10,6,20,12,,0.00,,,103
2013-8-29,88,70,52,34,32,28,38,20,7,30.09,30.03,29.95,16,14,12,7,5,,0.00,,,73
2013-8-30,93,78,62,39,36,34,20,13,6,29.83,29.83,29.83,12,6,3,10,8,,0.00,,,330
2013-8-31,84,71,60,34,32,32,36,19,8,29.95,29.93,29.92,12,12,12,12,9,,0.00,,,193